Location: Temple Hill
(37.3073°N, 88.6303°W)
Time: 15:45:14
(UTC+00:00)

Cosmos 1805 Rocket - Pass Details

Date: 23 November 2020
Orbit: 605 x 631 km, 82.5° (Epoch: 20 January)

Event Time Altitude Azimuth Distance (km) Brightness Sun altitude
Rises 23:23:14 0° 358° (N) 2,928 6.8 -8.9°
Reaches altitude 10° 23:25:32 10° 3° (N) 2,015 6.0 -9.3°
Maximum altitude 23:29:55 53° 81° (E) 770 3.7 -10.2°
Drops below altitude 10° 23:34:14 10° 158° (SSE) 1,990 6.1 -11.0°
Sets 23:36:29 0° 163° (SSE) 2,888 7.0 -11.4°
